Temp
68 71 73 74 74 74 73 73 73 72 72 72 71 71 71 71 71 70 71 71 71 72 72 72 72 70 70 69 69 69 69 69 69 69 68 68 69 70 71 71 71 70 75
70 71 72 74 74 73 73 72 72 72 72 71 71 71 71 71 70 70 70 71 71 72 71 71 70 71 69 69 68 69 69 68 68 68 67 67 66 68 70 71 68 69 73
69 71 72 72 73 73 72 72 72 71 71 71 71 71 70 70 70 70 70 71 70 70 70 70 70 69 68 69 68 68 68 67 66 66 66 59 59 68 71 69 70 72 73
70 70 71 71 72 72 72 71 71 71 71 71 70 70 70 70 70 70 70 69 69 70 71 70 69 68 68 68 68 67 67 66 65 65 58 60 61 71 71 66 69 72 73
68 70 70 71 72 72 71 71 71 71 70 70 70 70 70 70 70 69 69 70 69 70 70 68 68 68 68 68 67 66 66 65 65 59 56 58 58 68 71 70 66 67 70
68 70 69 71 72 71 71 71 71 70 70 70 70 70 69 69 69 69 69 69 69 69 68 69 68 67 67 66 66 65 65 64 62 53 56 62 60 69 70 69 68 69 71
67 70 70 70 71 71 71 71 70 70 70 69 69 68 68 68 68 68 68 68 68 68 68 68 67 67 67 66 66 66 65 64 58 54 55 58 59 69 69 69 70 69 70
66 68 69 68 68 69 70 70 70 69 69 68 68 68 67 67 67 67 67 67 67 67 68 68 67 66 66 66 66 66 65 64 60 57 56 56 64 68 69 69 70 70 70
67 67 67 65 66 66 67 67 68 68 68 67 67 67 66 66 66 65 66 67 67 67 68 67 67 66 66 67 66 66 64 62 56 57 59 56 64 68 69 70 70 69 72
65 65 65 61 62 61 61 64 64 65 66 66 65 64 63 64 64 63 62 65 66 66 66 66 65 64 64 64 64 63 61 60 55 56 55 56 66 68 70 71 71 72 72
63 65 62 61 59 59 59 59 61 62 63 62 61 61 59 56 56 58 61 63 66 66 66 65 64 62 61 60 61 61 59 55 56 55 57 66 68 70 71 72 72 72 71
61 63 62 60 59 58 63 56 55 57 55 55 55 55 56 55 55 57 57 60 61 63 64 64 62 60 57 53 54 57 54 54 54 54 60 65 71 71 72 73 73 71 70
61 63 62 61 59 57 57 53 51 51 51 52 53 54 55 55 53 52 52 53 53 55 55 56 54 54 53 53 52 53 53 53 52 53 59 62 69 72 73 73 72 71 71
61 63 63 62 60 57 56 53 51 51 50 50 52 54 53 51 51 51 52 52 52 52 53 52 51 53 52 53 52 53 53 54 56 54 55 59 64 70 73 73 72 71 72
62 65 65 64 60 59 56 53 52 51 51 52 52 54 53 52 51 51 52 52 52 54 53 51 51 51 51 53 53 52 54 58 61 60 60 60 62 67 72 73 72 72 72
66 66 67 64 61 59 56 54 53 51 51 51 51 53 54 53 51 52 52 52 52 55 53 51 51 51 51 52 57 57 59 59 60 61 64 61 61 65 71 72 73 72 71
67 69 67 65 63 59 57 55 53 52 52 51 51 53 54 54 53 52 52 52 52 55 53 53 53 53 53 55 56 57 57 59 60 60 61 61 61 62 65 71 72 71 71
65 65 68 70 62 61 57 55 54 52 51 51 51 52 54 55 54 52 52 52 53 54 53 52 51 51 51 55 55 55 56 57 58 59 60 62 62 63 63 65 67 70 70
65 64 65 69 62 60 55 55 53 52 50 50 50 51 53 55 54 53 52 52 54 53 52 53 51 51 50 55 54 55 55 55 56 58 58 60 62 62 62 62 61 65 69
65 64 65 67 63 61 56 53 50 50 50 49 50 51 53 54 54 53 52 53 53 53 52 52 52 53 56 56 56 55 54 55 54 55 56 58 61 62 63 62 63 62 65
64 63 63 64 62 60 56 53 51 51 48 48 49 52 53 53 53 52 52 52 53 53 52 55 56 55 55 56 56 55 55 55 54 53 55 57 59 61 62 62 63 63 64
62 63 62 63 60 60 58 57 52 52 47 49 49 51 52 53 53 53 53 52 53 53 53 53 53 52 54 55 54 54 51 53 53 53 53 55 57 59 59 60 61 60 60
61 61 62 63 61 61 59 54 50 48 48 47 47 49 51 53 53 53 53 53 53 53 53 53 53 52 49 52 52 54 50 48 49 52 51 52 55 57 57 58 58 58 59
61 63 62 62 61 61 59 55 53 54 51 50 52 49 51 52 52 53 53 53 53 54 53 53 54 52 51 49 49 52 51 54 49 48 51 50 52 53 55 55 54 55 55
62 62 62 62 61 62 58 57 54 54 53 50 47 48 50 50 51 52 53 52 53 53 53 54 53 52 52 50 49 48 51 52 52 50 46 49 50 50 52 52 51 51 51
63 63 62 61 60 62 58 58 55 54 51 49 50 49 50 51 50 51 52 52 52 53 53 53 53 53 52 51 50 50 50 49 51 48 47 46 46 48 50 51 51 49 49
MSLP
1012.62 1012.65 1012.92 1013.23 1013.69 1013.94 1014.16 1014.34 1014.45 1014.54 1014.66 1014.76 1014.85 1014.88 1014.88 1014.88 1014.85 1014.74 1014.63 1014.57 1014.49 1014.39 1014.25 1014.17 1014.10 1014.11 1014.01 1014.03 1013.88 1013.64 1013.53 1013.40 1013.34 1013.30 1013.27 1013.12 1012.90 1012.63 1012.32 1012.32 1012.32 1012.45 1012.34
1012.13 1012.64 1012.96 1013.25 1013.73 1014.09 1014.34 1014.54 1014.62 1014.73 1014.84 1014.93 1015.00 1014.98 1014.94 1014.97 1014.94 1014.90 1014.83 1014.76 1014.64 1014.45 1014.37 1014.29 1014.22 1014.12 1014.24 1014.04 1013.96 1013.66 1013.43 1013.34 1013.25 1013.29 1013.31 1013.23 1013.18 1012.86 1012.49 1012.30 1012.42 1012.68 1012.44
1012.16 1012.62 1013.07 1013.28 1013.83 1014.22 1014.48 1014.70 1014.80 1014.90 1015.01 1015.10 1015.13 1015.13 1015.12 1015.12 1015.05 1015.02 1014.95 1014.93 1014.87 1014.74 1014.55 1014.45 1014.31 1014.42 1014.24 1013.96 1013.88 1013.73 1013.68 1013.56 1013.45 1013.29 1013.22 1013.01 1012.81 1012.52 1012.37 1012.44 1012.23 1012.11 1012.35
1012.06 1012.67 1013.12 1013.44 1013.88 1014.31 1014.57 1014.77 1014.92 1015.08 1015.17 1015.24 1015.29 1015.29 1015.31 1015.26 1015.23 1015.21 1015.27 1015.28 1015.08 1014.86 1014.64 1014.54 1014.57 1014.38 1014.18 1014.07 1013.93 1013.89 1013.80 1013.78 1013.78 1013.50 1013.38 1013.09 1012.87 1012.26 1012.31 1012.51 1012.34 1012.11 1012.19
1012.34 1012.74 1013.20 1013.46 1013.98 1014.41 1014.67 1014.87 1015.04 1015.18 1015.29 1015.40 1015.44 1015.46 1015.46 1015.46 1015.50 1015.50 1015.50 1015.32 1015.27 1015.01 1014.85 1014.82 1014.66 1014.44 1014.31 1014.15 1014.08 1014.02 1013.90 1013.72 1013.58 1013.49 1013.20 1012.96 1012.72 1012.38 1012.32 1012.45 1012.61 1012.64 1012.49
1012.43 1012.76 1013.32 1013.47 1014.12 1014.43 1014.75 1014.98 1015.15 1015.27 1015.38 1015.51 1015.57 1015.61 1015.68 1015.70 1015.73 1015.67 1015.56 1015.54 1015.46 1015.28 1015.07 1014.84 1014.78 1014.71 1014.60 1014.43 1014.30 1014.14 1013.94 1013.70 1013.63 1013.62 1013.30 1012.99 1012.88 1012.52 1012.52 1012.61 1012.55 1012.52 1012.03
1012.55 1012.68 1013.32 1013.65 1014.18 1014.47 1014.81 1015.04 1015.27 1015.42 1015.54 1015.67 1015.80 1015.88 1015.97 1015.97 1015.92 1015.89 1015.81 1015.76 1015.69 1015.43 1015.19 1015.05 1015.01 1014.98 1014.80 1014.69 1014.43 1014.21 1013.92 1013.69 1013.69 1013.75 1013.59 1013.31 1013.13 1012.74 1012.58 1012.61 1012.35 1012.20 1012.28
1012.45 1012.78 1013.25 1013.86 1014.26 1014.54 1014.84 1015.12 1015.40 1015.60 1015.72 1015.85 1015.99 1016.07 1016.15 1016.22 1016.23 1016.17 1016.08 1016.02 1015.87 1015.56 1015.24 1015.11 1015.03 1015.11 1015.02 1014.76 1014.66 1014.41 1014.20 1013.86 1013.81 1013.80 1013.72 1013.59 1013.21 1012.84 1012.66 1012.64 1012.59 1012.41 1012.43
1012.68 1012.91 1013.47 1014.03 1014.42 1014.67 1014.94 1015.25 1015.54 1015.75 1015.90 1016.04 1016.17 1016.22 1016.37 1016.47 1016.48 1016.51 1016.35 1016.14 1015.96 1015.69 1015.41 1015.35 1015.17 1015.26 1015.14 1014.90 1014.80 1014.59 1014.51 1014.13 1014.23 1014.06 1013.75 1013.49 1013.16 1012.87 1012.68 1012.55 1012.59 1012.87 1012.82
1013.08 1013.14 1013.60 1014.25 1014.64 1014.94 1015.16 1015.41 1015.69 1015.99 1016.14 1016.31 1016.42 1016.49 1016.66 1016.69 1016.74 1016.72 1016.67 1016.39 1016.18 1015.96 1015.84 1015.72 1015.72 1015.66 1015.52 1015.40 1015.11 1015.04 1014.86 1014.45 1014.56 1014.17 1013.86 1013.31 1012.96 1012.90 1012.73 1012.70 1012.72 1013.01 1013.28
1013.42 1013.41 1013.77 1014.27 1014.78 1015.17 1015.41 1015.63 1015.86 1016.15 1016.34 1016.51 1016.65 1016.74 1016.87 1016.96 1017.03 1016.89 1016.79 1016.52 1016.25 1016.22 1016.10 1016.19 1016.15 1016.07 1016.03 1015.85 1015.50 1015.33 1015.30 1014.99 1014.75 1014.41 1013.67 1012.61 1012.80 1012.73 1012.72 1012.70 1012.93 1013.08 1013.42
1013.45 1013.64 1013.94 1014.22 1014.61 1015.18 1015.40 1015.83 1016.10 1016.29 1016.52 1016.74 1016.86 1016.91 1016.97 1017.13 1017.14 1017.06 1016.94 1016.75 1016.60 1016.59 1016.51 1016.51 1016.46 1016.37 1016.30 1016.21 1015.84 1015.65 1015.34 1015.27 1015.05 1014.67 1014.10 1013.35 1012.83 1012.88 1012.73 1012.66 1012.90 1013.42 1013.36
1013.07 1013.49 1013.85 1014.09 1014.44 1014.86 1015.31 1015.90 1016.27 1016.44 1016.64 1016.81 1016.91 1016.96 1017.05 1017.24 1017.28 1017.33 1017.18 1017.12 1016.98 1016.98 1017.03 1016.93 1016.81 1016.67 1016.73 1016.51 1016.21 1016.06 1015.84 1015.47 1015.20 1014.89 1014.47 1014.10 1013.55 1013.15 1013.12 1013.23 1013.53 1013.86 1013.86
1012.74 1013.09 1013.54 1013.85 1014.27 1014.64 1015.10 1015.73 1016.14 1016.41 1016.59 1016.84 1016.92 1016.93 1017.18 1017.48 1017.52 1017.51 1017.40 1017.37 1017.33 1017.29 1017.36 1017.26 1017.13 1017.00 1017.04 1016.83 1016.53 1016.36 1016.05 1015.95 1015.65 1015.36 1015.13 1014.43 1014.03 1013.68 1013.30 1013.54 1014.05 1014.52 1014.79
1012.11 1012.51 1013.04 1013.56 1013.87 1014.43 1014.86 1015.49 1015.95 1016.25 1016.36 1016.54 1016.81 1016.87 1017.10 1017.43 1017.62 1017.56 1017.58 1017.52 1017.51 1017.44 1017.62 1017.55 1017.41 1017.39 1017.41 1017.18 1016.92 1016.82 1016.47 1016.11 1015.80 1015.63 1015.48 1015.07 1014.62 1014.26 1013.92 1014.20 1014.42 1014.72 1014.93
1011.22 1011.63 1012.34 1013.02 1013.57 1014.15 1014.68 1015.16 1015.63 1015.96 1016.10 1016.41 1016.70 1016.81 1016.95 1017.20 1017.55 1017.65 1017.71 1017.69 1017.69 1017.68 1017.91 1017.81 1017.70 1017.77 1017.84 1017.59 1017.25 1016.98 1016.64 1016.47 1016.18 1015.97 1015.56 1015.21 1014.84 1014.42 1014.47 1014.71 1014.97 1015.23 1015.21
1010.30 1010.46 1011.65 1012.60 1013.21 1013.78 1014.46 1014.89 1015.42 1015.73 1016.01 1016.32 1016.55 1016.67 1016.82 1017.04 1017.36 1017.62 1017.74 1017.81 1017.79 1017.91 1018.11 1018.01 1017.95 1017.95 1017.99 1017.90 1017.75 1017.51 1017.24 1016.94 1016.72 1016.48 1016.27 1015.93 1015.54 1015.29 1015.20 1015.18 1015.36 1015.72 1015.44
1010.23 1010.18 1010.66 1011.76 1012.82 1013.38 1014.12 1014.65 1015.21 1015.61 1015.94 1016.12 1016.40 1016.59 1016.71 1016.94 1017.24 1017.60 1017.76 1017.88 1017.86 1018.08 1018.35 1018.37 1018.48 1018.50 1018.43 1018.44 1018.28 1018.24 1018.05 1017.74 1017.42 1017.07 1016.82 1016.53 1016.35 1016.21 1016.12 1016.17 1016.18 1016.39 1016.41
1009.28 1009.91 1010.15 1010.80 1012.13 1012.95 1013.82 1014.29 1014.96 1015.48 1015.87 1016.05 1016.24 1016.52 1016.61 1016.85 1017.16 1017.46 1017.69 1017.87 1017.96 1018.26 1018.60 1018.63 1018.75 1018.78 1018.81 1018.77 1018.78 1018.78 1018.76 1018.65 1018.40 1018.02 1017.68 1017.37 1017.16 1017.10 1017.08 1016.99 1017.00 1017.19 1017.22
1008.76 1009.27 1009.94 1010.24 1011.37 1012.49 1013.59 1014.17 1014.89 1015.47 1015.83 1016.07 1016.19 1016.40 1016.52 1016.77 1017.07 1017.42 1017.71 1017.91 1018.04 1018.44 1018.83 1018.95 1018.90 1018.91 1019.06 1019.10 1019.12 1019.27 1019.41 1019.46 1019.38 1019.09 1018.82 1018.42 1017.94 1017.76 1017.84 1017.99 1018.11 1018.28 1018.36
1008.16 1008.76 1009.34 1009.88 1010.58 1011.79 1013.18 1013.93 1014.63 1015.22 1015.74 1016.15 1016.21 1016.22 1016.44 1016.66 1016.96 1017.36 1017.70 1018.00 1018.18 1018.60 1018.90 1019.17 1019.10 1019.29 1019.47 1019.34 1019.26 1019.65 1019.97 1020.12 1020.11 1020.02 1019.69 1019.25 1018.92 1018.86 1018.83 1019.00 1019.17 1019.39 1019.50
1007.09 1007.60 1008.45 1009.25 1009.98 1010.80 1012.12 1013.09 1013.75 1014.36 1015.27 1015.67 1016.02 1016.18 1016.33 1016.57 1016.84 1017.19 1017.58 1017.99 1018.17 1018.61 1019.00 1019.34 1019.24 1019.56 1019.60 1019.64 1019.76 1019.98 1020.44 1020.86 1020.82 1020.93 1020.53 1020.26 1019.96 1019.89 1019.89 1020.17 1020.31 1020.54 1020.72
1006.21 1006.76 1007.52 1008.13 1009.03 1009.83 1011.17 1012.61 1013.60 1014.46 1015.24 1015.79 1016.02 1016.14 1016.28 1016.40 1016.68 1016.92 1017.33 1017.73 1018.12 1018.33 1018.84 1019.28 1019.47 1019.67 1019.91 1019.99 1019.89 1019.89 1020.77 1021.34 1021.66 1021.81 1021.66 1021.35 1021.06 1021.08 1021.23 1021.40 1021.57 1021.73 1021.86
1005.21 1005.98 1006.54 1007.37 1008.28 1009.13 1010.12 1011.54 1012.47 1013.05 1013.86 1014.32 1014.91 1015.54 1015.97 1016.21 1016.52 1016.77 1017.12 1017.48 1017.86 1018.08 1018.50 1018.93 1019.25 1019.46 1019.77 1020.15 1020.45 1020.22 1020.17 1021.11 1021.76 1022.41 1022.62 1022.40 1022.26 1022.49 1022.64 1022.66 1022.87 1023.00 1023.04
1004.40 1004.93 1005.80 1006.71 1007.55 1008.32 1009.22 1010.02 1011.45 1012.55 1013.37 1013.84 1014.73 1015.35 1015.79 1016.20 1016.38 1016.63 1016.92 1017.28 1017.66 1017.95 1018.25 1018.62 1019.09 1019.33 1019.53 1020.07 1020.20 1020.60 1020.58 1021.09 1021.79 1022.01 1023.16 1023.48 1023.39 1023.89 1023.88 1023.95 1024.00 1023.97 1023.92
1003.15 1003.79 1004.61 1005.63 1006.62 1007.34 1008.49 1009.09 1010.32 1011.46 1012.53 1013.47 1014.32 1014.95 1015.47 1015.96 1016.32 1016.49 1016.72 1017.05 1017.32 1017.59 1018.00 1018.29 1018.88 1019.20 1019.40 1019.67 1019.99 1020.23 1020.42 1021.01 1021.81 1022.38 1023.14 1024.09 1024.48 1025.09 1024.89 1024.92 1025.04 1024.96 1024.70
Wind_Speed
8 10 16 17 15 13 13 12 12 11 11 10 10 9 9 9 10 10 10 9 8 8 7 7 8 9 8 9 8 7 7 7 7 7 7 9 10 9 6 6 2 4 10
14 12 16 18 16 13 13 12 12 11 10 10 9 9 10 10 10 10 9 8 8 9 9 10 10 9 9 8 9 10 8 8 6 7 9 10 12 11 6 7 5 10 9
14 11 12 17 16 13 13 12 12 11 11 10 10 9 10 10 10 9 9 10 11 10 9 10 9 9 9 8 8 9 11 12 13 10 10 4 4 8 1 5 5 5 8
14 11 12 17 16 13 13 12 12 11 10 10 10 10 10 9 9 10 11 10 9 8 9 10 12 10 10 11 11 10 9 11 11 11 5 5 6 2 3 2 8 3 8
12 11 13 17 15 14 13 12 12 11 11 10 10 10 10 9 9 10 10 10 10 11 11 12 11 11 11 10 12 12 11 10 9 9 5 1 2 2 4 6 1 7 6
12 13 13 17 16 15 14 13 12 11 11 10 10 10 10 10 9 10 11 10 11 11 11 11 13 13 13 12 11 10 9 8 9 5 5 5 5 6 4 4 2 2 8
12 13 12 16 15 15 14 13 12 12 11 11 10 10 10 9 10 11 11 12 11 10 11 11 11 13 14 13 11 10 9 9 6 6 4 5 4 6 5 5 5 6 3
13 12 11 13 13 14 14 13 12 12 11 11 11 11 11 10 11 11 12 11 10 9 10 10 7 7 10 10 11 10 10 11 6 4 2 3 5 4 4 3 6 5 5
10 12 10 8 9 11 12 11 11 11 11 11 11 11 10 10 10 10 11 11 10 11 15 14 15 13 13 14 11 14 12 12 6 4 4 2 3 0 5 7 9 5 9
9 11 11 6 6 6 6 10 10 10 9 10 10 10 8 9 9 9 7 10 7 9 15 14 15 13 13 14 15 15 13 12 6 5 4 4 5 3 5 9 13 13 16
7 11 10 9 7 6 6 6 9 10 9 8 7 8 6 3 4 5 5 9 10 13 14 15 14 15 13 13 15 13 11 4 5 5 4 10 8 7 10 11 14 17 20
10 11 10 9 9 7 6 6 5 5 4 4 4 4 4 4 3 4 4 9 10 10 15 13 14 13 9 4 5 8 3 5 4 4 5 17 11 11 11 14 16 21 22
11 9 11 11 10 8 6 4 3 3 3 3 4 4 4 3 2 3 3 3 4 6 4 6 5 5 7 5 4 4 5 5 3 4 7 16 13 10 8 11 18 20 20
11 11 12 12 11 8 6 5 5 4 3 3 4 5 4 3 3 3 3 3 4 3 5 4 3 5 6 6 6 6 6 5 4 3 7 16 15 11 10 15 16 18 15
12 12 13 13 11 9 9 5 4 4 4 5 4 4 4 4 4 4 3 4 3 3 4 4 4 5 5 6 7 6 7 9 8 6 4 11 10 6 13 17 17 16 14
15 13 11 12 12 10 8 7 6 4 5 5 4 5 6 5 4 4 4 4 3 4 4 3 3 4 4 5 9 8 11 8 8 7 6 6 15 9 14 17 16 13 7
15 15 13 11 13 12 9 8 5 5 5 5 4 6 6 5 6 5 4 4 3 4 5 3 4 5 6 6 8 8 8 9 9 9 7 6 8 16 8 13 15 15 18
12 15 16 12 12 13 9 7 5 5 5 5 5 4 6 6 7 5 4 4 4 4 4 3 3 4 5 6 6 7 8 9 9 11 9 7 7 7 10 12 12 20 24
17 15 17 17 13 13 9 7 6 7 5 4 5 4 6 6 6 5 4 4 5 4 4 2 3 3 4 6 7 7 7 8 9 9 11 11 9 8 6 13 15 15 20
18 16 15 15 13 13 8 6 4 4 4 4 4 5 6 5 7 6 4 5 4 5 4 3 4 3 5 6 7 8 8 8 7 8 9 8 9 10 9 9 8 9 18
18 17 18 18 16 12 9 9 6 7 4 3 4 7 7 6 7 6 4 5 5 6 5 4 4 6 4 2 5 7 7 9 11 8 7 8 9 10 11 9 7 7 10
21 21 19 19 17 15 12 9 4 6 3 3 3 5 6 7 7 7 7 6 6 5 6 4 2 2 1 1 2 2 3 5 7 8 8 8 10 9 12 12 12 11 8
21 21 20 22 20 18 16 8 4 5 4 3 3 4 5 7 7 7 7 6 7 5 5 5 4 5 2 3 3 3 2 3 1 5 9 8 10 10 10 11 11 10 9
21 19 21 21 21 19 19 14 14 12 10 5 7 5 6 7 7 7 7 6 7 6 5 4 4 3 4 3 2 3 3 4 2 3 5 7 10 10 10 9 9 9 8
20 20 20 21 21 19 19 19 14 12 7 5 4 8 7 5 7 7 7 7 7 5 6 6 4 4 3 3 3 2 3 3 3 3 4 4 9 7 8 8 6 6 7
19 21 21 22 22 21 20 20 20 17 12 10 10 9 8 6 6 7 7 7 6 6 6 5 5 5 4 4 3 3 4 4 4 3 4 4 6 5 6 7 7 5 4
Wind_Direction
151 150 143 136 137 137 128 124 118 113 109 103 99 95 87 80 71 64 59 53 49 47 43 33 29 28 13 3 354 344 336 330 325 324 322 316 310 306 318 331 216 307 186
138 143 143 136 135 137 130 127 121 117 112 106 100 94 87 80 73 68 65 58 47 39 38 32 29 14 14 3 359 343 357 353 332 339 332 331 323 310 294 341 258 197 228
138 144 143 129 132 140 135 133 127 122 114 108 103 97 90 83 81 75 67 53 46 41 34 38 26 14 4 0 353 352 348 355 358 350 343 314 290 279 320 340 331 205 195
136 134 136 132 134 144 141 136 129 123 119 114 109 102 97 92 82 70 62 57 49 46 40 29 28 21 8 11 5 7 0 3 352 355 333 313 331 78 67 88 335 312 172
131 131 134 136 139 147 144 138 132 128 124 119 111 108 102 91 80 72 72 61 49 44 38 38 35 24 20 15 16 10 10 11 3 350 323 23 348 22 49 32 3 304 236
137 136 139 128 154 149 146 140 137 133 128 122 116 109 99 90 86 79 68 65 55 47 40 42 50 42 36 32 30 28 25 11 9 352 358 45 32 26 2 10 7 196 171
139 133 138 135 153 150 149 144 143 138 130 123 115 107 100 93 83 76 69 63 57 53 54 60 51 46 47 47 33 25 9 11 12 2 17 28 350 14 30 37 29 7 331
142 137 138 149 151 152 150 148 145 140 135 127 120 113 105 98 88 80 73 68 63 55 49 47 54 60 37 34 30 15 16 26 26 35 28 4 330 3 73 117 99 57 10
136 134 131 138 147 146 140 144 143 142 140 130 124 115 108 103 95 81 79 66 56 40 54 52 50 65 41 46 45 29 29 34 29 7 341 294 306 208 130 143 110 85 63
141 137 136 126 128 128 134 139 133 133 136 133 129 119 111 100 99 96 73 64 55 46 60 59 57 55 46 41 40 32 22 40 16 348 319 294 170 150 142 128 120 92 89
157 144 144 142 135 136 132 137 134 138 139 139 134 132 118 122 108 93 75 63 66 66 66 61 59 55 49 38 43 32 14 353 32 342 336 18 140 152 141 128 110 114 105
167 160 158 150 151 147 147 142 145 146 142 144 143 155 132 145 147 90 55 64 68 57 63 65 56 53 42 18 26 15 10 19 18 355 344 360 107 122 139 137 118 123 129
170 171 170 162 163 155 151 155 156 153 151 167 160 156 142 117 99 87 71 53 67 56 51 47 35 47 38 25 20 11 5 24 15 8 357 11 24 110 114 111 119 128 136
171 177 175 173 164 169 154 164 168 165 163 161 175 145 124 114 111 107 100 85 82 59 62 44 42 49 45 28 25 15 22 18 17 11 12 0 6 29 110 113 117 120 129
177 179 180 172 167 172 163 162 168 179 164 165 159 152 138 137 119 118 110 97 90 75 75 52 49 55 44 28 30 6 25 45 45 31 20 22 13 2 119 108 112 103 107
185 174 184 169 169 168 168 168 177 168 167 158 157 157 153 142 128 124 119 107 96 80 85 76 73 66 51 36 46 27 51 38 29 38 38 14 15 77 116 109 115 101 116
200 183 189 167 168 169 173 171 168 171 161 158 162 159 153 144 137 138 125 114 123 96 93 70 51 47 61 44 44 33 28 34 31 22 21 18 14 41 86 119 113 93 86
199 187 184 184 171 167 168 163 163 166 163 164 160 159 156 144 142 140 127 129 137 96 101 85 76 59 63 61 49 37 39 29 30 27 23 30 33 38 49 77 98 108 100
193 187 190 186 168 167 168 158 156 165 164 171 153 161 161 147 147 138 131 134 130 109 103 98 76 89 71 72 62 48 41 41 32 25 24 24 34 44 50 60 62 101 103
192 187 193 185 171 162 159 148 136 149 166 165 167 166 162 150 150 139 129 132 132 105 103 78 105 71 89 89 79 62 47 41 36 34 25 18 32 43 54 57 57 76 100
191 186 190 188 171 160 164 167 165 177 167 179 179 168 164 153 154 147 136 135 142 131 138 144 108 105 93 88 88 75 64 53 41 26 23 31 40 60 64 59 65 73 82
189 192 188 192 175 173 172 179 163 157 157 158 171 171 168 158 160 154 150 150 159 141 141 162 131 100 81 32 101 70 53 36 29 20 27 35 47 60 62 60 66 59 57
193 190 190 189 184 175 169 148 109 89 82 117 186 177 183 165 167 159 160 155 165 160 159 172 170 146 167 39 47 118 104 83 86 2 24 35 47 60 56 57 54 49 53
197 191 190 188 183 179 168 167 172 183 178 187 176 167 170 169 169 165 164 161 164 168 170 178 173 152 135 149 64 34 100 107 117 94 31 30 49 48 48 52 50 45 42
193 192 190 186 185 179 176 172 176 183 179 155 138 158 168 170 169 170 167 165 165 168 176 172 178 175 156 148 139 160 85 88 58 102 102 83 60 34 42 45 44 49 41
199 193 187 184 186 183 180 174 181 182 168 159 167 172 175 175 173 174 170 168 168 167 174 166 177 183 176 150 146 161 140 142 144 129 108 83 89 33 46 44 38 25 39